DW0243 Weather Reports


time (UTC)temp
C
wind
direction
speed
KPH
gust
KPH
rain 1hr
cm
rain 24hr
cm
rain mn
cm
humidity
%
barometer
mb
20260503041155 7 134 0.0 0.0 0.00 0.00 0.00 93 1014.2
20260503040208 7 134 0.0 0.0 0.00 0.00 0.00 93 1014.2
20260503035154 7 134 0.0 0.0 0.00 0.00 0.00 93 1014.1
20260503034151 7 134 0.0 0.0 0.00 0.00 0.00 93 1014.3
20260503033154 7 134 0.0 0.0 0.00 0.00 0.00 93 1014.2
20260503032154 7 134 0.0 0.0 0.00 0.00 0.00 93 1014.4
20260503031153 7 134 0.0 0.0 0.00 0.00 0.00 93 1014.4
20260503030153 7 134 0.0 0.0 0.00 0.00 0.00 93 1014.4
20260503025155 8 134 0.0 0.0 0.00 0.00 0.00 93 1014.5
20260503024155 8 134 0.0 0.0 0.00 0.00 0.00 93 1014.6
20260503022155 8 134 0.0 0.0 0.00 0.00 0.00 93 1014.6
20260503020153 8 134 0.0 0.0 0.00 0.00 0.00 92 1014.6
20260503015151 8 134 0.0 0.0 0.00 0.00 0.00 92 1014.7
20260503013152 8 134 0.0 0.0 0.00 0.00 0.00 92 1014.8
20260503012152 8 134 0.0 0.0 0.00 0.00 0.00 91 1014.8
20260503011154 8 134 0.0 0.0 0.00 0.00 0.00 91 1014.9
20260503010150 9 134 0.0 0.0 0.00 0.00 0.00 91 1014.9
20260503005150 9 134 0.0 0.0 0.00 0.00 0.00 91 1015.0
20260503004150 9 134 0.0 0.0 0.00 0.00 0.00 91 1015.0
20260503003154 9 134 0.0 0.0 0.00 0.00 0.00 90 1015.1
20260503002151 10 134 0.0 0.0 0.00 0.00 0.00 91 1015.1
20260503001149 10 134 0.0 0.0 0.00 0.00 0.00 91 1015.1
20260503000151 10 134 0.0 0.0 0.00 0.00 0.00 90 1015.2
20260502235149 10 134 0.0 0.0 0.00 0.00 0.00 90 1015.4
20260502234153 10 134 0.0 0.0 0.00 0.00 0.00 89 1015.4
20260502233153 10 134 0.0 0.0 0.00 0.00 0.00 89 1015.4
20260502232200 10 134 0.0 0.0 0.00 0.00 0.00 88 1015.5
20260502231148 11 134 0.0 0.0 0.00 0.00 0.00 87 1015.5
20260502230231 11 134 0.0 0.0 0.00 0.00 0.00 87 1015.6
20260502225149 11 134 0.0 0.0 0.00 0.00 0.00 86 1015.7
20260502224148 11 134 0.0 0.0 0.00 0.00 0.00 86 1015.6
20260502223147 11 134 0.0 0.0 0.00 0.00 0.00 85 1015.7
20260502220146 12 134 0.0 0.0 0.00 0.00 0.00 83 1015.6
20260502215146 12 134 0.0 0.0 0.00 0.00 0.00 83 1015.7
20260502214149 12 134 0.0 0.0 0.00 0.00 0.00 82 1015.6
20260502213145 13 134 0.0 0.0 0.00 0.00 0.00 82 1015.8
20260502212146 13 134 0.0 0.0 0.00 0.00 0.00 81 1015.7
20260502205143 14 134 0.0 0.0 0.00 0.00 0.00 79 1015.8
20260502204146 14 134 0.0 3.2 0.00 0.00 0.00 78 1015.8
20260502203143 15 134 0.0 0.0 0.00 0.00 0.00 76 1015.9
20260502202144 15 134 0.0 0.0 0.00 0.00 0.00 76 1015.9
20260502201143 15 134 0.0 0.0 0.00 0.00 0.00 75 1015.9
20260502200146 15 134 0.0 0.0 0.00 0.00 0.00 75 1015.9
20260502195144 15 134 0.0 3.2 0.00 0.00 0.00 74 1015.9
20260502194144 16 134 0.0 4.8 0.00 0.00 0.00 73 1016.1
20260502193145 16 134 0.0 3.2 0.00 0.00 0.00 72 1015.9
20260502192141 16 134 0.0 0.0 0.00 0.00 0.00 70 1015.8
20260502190139 18 134 1.6 6.4 0.00 0.00 0.00 67 1015.9
20260502185139 18 134 0.0 6.4 0.00 0.00 0.00 65 1015.9
20260502180137 21 135 1.6 3.2 0.00 0.00 0.00 55 1015.8
20260502170137 23 133 0.0 6.4 0.00 0.00 0.00 45 1016.1
20260502164132 24 136 3.2 8.0 0.00 0.00 0.00 43 1016.2
20260502163131 25 161 1.6 8.0 0.00 0.00 0.00 42 1016.3
20260502161131 25 169 1.6 11.3 0.00 0.00 0.00 42 1016.5
20260502160131 25 129 0.0 4.8 0.00 0.00 0.00 43 1016.6
20260502152132 25 236 0.0 4.8 0.00 0.00 0.00 40 1017.1
20260502151130 25 244 3.2 9.7 0.00 0.00 0.00 40 1017.2
20260502150131 25 134 1.6 12.9 0.00 0.00 0.00 40 1017.3
20260502140129 25 130 1.6 12.9 0.00 0.00 0.00 34 1018.0
20260502130134 25 82 6.4 19.3 0.00 0.00 0.00 40 1018.6
20260502122131 24 117 4.8 19.3 0.00 0.00 0.00 42 1019.1
20260502121134 24 84 8.0 19.3 0.00 0.00 0.00 42 1019.2
20260502120134 24 216 3.2 17.7 0.00 0.00 0.00 42 1019.3
20260502115133 23 86 6.4 16.1 0.00 0.00 0.00 41 1019.5
20260502114144 24 104 6.4 16.1 0.00 0.00 0.00 35 1019.6
20260502111138 23 106 3.2 14.5 0.00 0.00 0.00 42 1020.1
20260502110131 23 82 3.2 12.9 0.00 0.00 0.00 43 1020.1
20260502105134 23 174 3.2 9.7 0.00 0.00 0.00 43 1020.3
20260502103147 22 116 3.2 9.7 0.00 0.00 0.00 44 1020.7
20260502100129 22 137 4.8 11.3 0.00 0.00 0.00 37 1021.0
20260502090129 20 97 1.6 9.7 0.00 0.00 0.00 47 1021.5
20260502071128 12 103 0.0 0.0 0.00 0.00 0.00 77 1021.9
20260502070128 11 103 0.0 0.0 0.00 0.00 0.00 80 1022.1
20260502065129 10 103 0.0 0.0 0.00 0.00 0.00 81 1022.1
20260502064127 10 103 0.0 1.6 0.00 0.00 0.00 81 1022.3
20260502063126 9 103 0.0 0.0 0.00 0.00 0.00 83 1022.2
20260502062126 9 103 0.0 0.0 0.00 0.00 0.00 82 1022.1
20260502060129 8 103 0.0 0.0 0.00 0.00 0.00 85 1022.3
20260502055126 7 103 0.0 0.0 0.00 0.00 0.00 86 1022.4
20260502053127 6 103 0.0 0.0 0.00 0.00 0.00 88 1022.6
20260502051125 5 103 0.0 0.0 0.00 0.00 0.00 91 1022.5
20260502050125 5 103 0.0 0.0 0.00 0.00 0.00 92 1022.6
20260502044124 3 103 0.0 0.0 0.00 0.00 0.00 93 1022.5
20260502043124 3 103 0.0 0.0 0.00 0.00 0.00 93 1022.5
20260502042122 3 103 0.0 0.0 0.00 0.00 0.00 93 1022.5